Погода в Усть-Каде

Россия / Иркутская область     54°29′51″N   102°00′58″E
темп.,
°C
ветер,
м/с
пор.,
м/с
влажн.,
%
обл.,
%
осадки,
мм/ч
давл.,
гПа
погр.,
м
18 мая, вт
вт1823:00+4з2690100 0.0 1011184
02:00+3з239413 0.0 101161
05:00+2зюз119439 0.0 101110
08:00+7з3569100 0.0 1011421
11:00+8зюз466493 0.1 10091229
14:00+9зюз3565100 0.3 10071119
17:00+10зюз3462100 0.1 10031164
20:00+7св1195100 4.9 100075
19 мая, ср
ср1923:00+6ссв4795100 5.4 1000466
02:00+5ссз2591100 7.4 1003283
05:00+2зсз379433 0.0 1006223
08:00+5сз246917 0.0 1008349
11:00+9с2343100 0.0 10071294
14:00+13з013197 0.0 10052008
17:00+12в2233100 0.0 10021751
20:00+9св3649100 0.0 1001192
20 мая, чт
чт2023:00+6всв2761100 0.1 1003298
02:00+5всв0169100 0.2 1003112
05:00+4с1277100 0.3 1005222
08:00+6зюз1165100 0.3 1005418
11:00+10св2346100 0.0 10051352
14:00+12вюв2434100 0.0 10042050
17:00+13в3532100 0.0 10022116
20:00+10вюв1153100 0.0 100211
21 мая, пт
пт2123:00+7в1257100 0.0 100338
02:00+6ссв3783100 1.1 1003314
05:00+4св41085100 2.0 1003586
08:00+3ссв51095100 2.9 1004626
11:00+3ссв41096100 2.5 1005576
14:00+3с51197100 7.4 1006685
17:00+3с51197100 2.6 1007773
20:00+5ссз4983100 4.3 1009659
22 мая, сб
сб2223:00+4зсз31188100 0.4 1009396
02:00+4зсз31189100 0.5 1010335
05:00+4сз41281100 0.0 1012367
08:00+6сз61372100 0.0 1013785
11:00+10сз81355100 0.4 10132201
14:00+12сз81146100 0.9 10122575
17:00+10сз71061100 0.4 10121398
20:00+6зсз51079100 0.6 10141021